TimeEDT,TemperatureF,Dew PointF,Humidity,Sea Level PressureIn,VisibilityMPH,Wind Direction,Wind SpeedMPH,Gust SpeedMPH,PrecipitationIn,Events,Conditions,WindDirDegrees,DateUTC
12:15 AM,37.4,35.6,93,30.08,7.0,Calm,Calm,-,N/A,,Clear,0,2013-10-21 04:15:00
12:35 AM,37.4,37.4,100,30.08,7.0,Calm,Calm,-,N/A,,Clear,0,2013-10-21 04:35:00
12:55 AM,37.4,35.6,93,30.08,7.0,Calm,Calm,-,N/A,,Clear,0,2013-10-21 04:55:00
1:15 AM,37.4,35.6,93,30.09,5.0,Calm,Calm,-,N/A,,Clear,0,2013-10-21 05:15:00
1:35 AM,37.4,35.6,93,30.09,5.0,Calm,Calm,-,N/A,,Clear,0,2013-10-21 05:35:00
1:55 AM,35.6,35.6,100,30.10,7.0,Calm,Calm,-,N/A,,Clear,0,2013-10-21 05:55:00
2:15 AM,35.6,35.6,100,30.10,7.0,Calm,Calm,-,N/A,,Clear,0,2013-10-21 06:15:00
2:35 AM,35.6,35.6,100,30.10,4.0,Calm,Calm,-,N/A,,Clear,0,2013-10-21 06:35:00
2:55 AM,35.6,35.6,100,30.11,7.0,Calm,Calm,-,N/A,,Clear,0,2013-10-21 06:55:00
3:15 AM,35.6,35.6,100,30.11,5.0,Calm,Calm,-,N/A,,Clear,0,2013-10-21 07:15:00
3:35 AM,35.6,35.6,100,30.11,5.0,Calm,Calm,-,N/A,,Clear,0,2013-10-21 07:35:00
3:55 AM,35.6,35.6,100,30.11,4.0,Calm,Calm,-,N/A,,Clear,0,2013-10-21 07:55:00
4:15 AM,35.6,35.6,100,30.11,2.5,Calm,Calm,-,N/A,,Clear,0,2013-10-21 08:15:00
4:35 AM,35.6,35.6,100,30.11,4.0,Calm,Calm,-,N/A,,Clear,0,2013-10-21 08:35:00
4:55 AM,35.6,35.6,100,30.12,4.0,Calm,Calm,-,N/A,,Clear,0,2013-10-21 08:55:00
5:15 AM,35.6,33.8,93,30.12,5.0,Calm,Calm,-,N/A,,Clear,0,2013-10-21 09:15:00
5:35 AM,33.8,33.8,100,30.12,7.0,Calm,Calm,-,N/A,,Clear,0,2013-10-21 09:35:00
5:55 AM,33.8,33.8,100,30.12,4.0,Calm,Calm,-,N/A,,Clear,0,2013-10-21 09:55:00
6:15 AM,33.8,33.8,100,30.13,5.0,Calm,Calm,-,N/A,,Clear,0,2013-10-21 10:15:00
6:35 AM,33.8,33.8,100,30.13,4.0,Calm,Calm,-,N/A,,Clear,0,2013-10-21 10:35:00
6:55 AM,33.8,33.8,100,30.13,4.0,Calm,Calm,-,N/A,,Clear,0,2013-10-21 10:55:00
7:15 AM,33.8,33.8,100,30.13,3.0,Calm,Calm,-,N/A,,Clear,0,2013-10-21 11:15:00
7:35 AM,33.8,33.8,100,30.14,4.0,Calm,Calm,-,N/A,,Clear,0,2013-10-21 11:35:00
7:55 AM,35.6,35.6,100,30.14,4.0,Calm,Calm,-,N/A,,Clear,0,2013-10-21 11:55:00
8:15 AM,37.4,37.4,100,30.15,4.0,Calm,Calm,-,N/A,,Clear,0,2013-10-21 12:15:00
8:35 AM,41.0,41.0,100,30.16,7.0,Calm,Calm,-,N/A,,Clear,0,2013-10-21 12:35:00
8:55 AM,44.6,42.8,93,30.16,10.0,Calm,Calm,-,N/A,,Clear,0,2013-10-21 12:55:00
9:15 AM,46.4,42.8,87,30.16,10.0,Calm,Calm,-,N/A,,Clear,0,2013-10-21 13:15:00
9:35 AM,50.0,42.8,76,30.16,10.0,Calm,Calm,-,N/A,,Clear,0,2013-10-21 13:35:00
9:55 AM,53.6,42.8,67,30.15,10.0,Calm,Calm,-,N/A,,Clear,0,2013-10-21 13:55:00
10:15 AM,55.4,42.8,63,30.15,10.0,SW,3.5,-,N/A,,Clear,220,2013-10-21 14:15:00
10:35 AM,59.0,41.0,51,30.15,10.0,WSW,5.8,-,N/A,,Clear,250,2013-10-21 14:35:00
10:55 AM,60.8,41.0,48,30.14,10.0,SSW,4.6,-,N/A,,Clear,210,2013-10-21 14:55:00
11:15 AM,60.8,41.0,48,30.13,10.0,WSW,4.6,-,N/A,,Clear,250,2013-10-21 15:15:00
11:35 AM,62.6,39.2,42,30.13,10.0,SW,4.6,-,N/A,,Clear,230,2013-10-21 15:35:00
11:55 AM,62.6,37.4,39,30.13,10.0,SSW,8.1,-,N/A,,Clear,210,2013-10-21 15:55:00
12:15 PM,64.4,37.4,37,30.12,10.0,SSW,9.2,-,N/A,,Clear,210,2013-10-21 16:15:00
12:35 PM,64.4,37.4,37,30.11,10.0,SW,8.1,-,N/A,,Clear,220,2013-10-21 16:35:00
12:55 PM,64.4,35.6,34,30.10,10.0,SSW,6.9,-,N/A,,Clear,200,2013-10-21 16:55:00
1:15 PM,64.4,35.6,34,30.09,10.0,SW,10.4,-,N/A,,Clear,220,2013-10-21 17:15:00
1:35 PM,64.4,35.6,34,30.08,10.0,SSW,8.1,-,N/A,,Clear,200,2013-10-21 17:35:00
1:55 PM,64.4,35.6,34,30.07,10.0,SW,9.2,-,N/A,,Clear,230,2013-10-21 17:55:00
2:15 PM,64.4,37.4,37,30.06,10.0,SSW,8.1,-,N/A,,Clear,210,2013-10-21 18:15:00
2:35 PM,64.4,35.6,34,30.05,10.0,South,9.2,-,N/A,,Clear,190,2013-10-21 18:35:00
2:55 PM,64.4,37.4,37,30.05,10.0,SW,6.9,-,N/A,,Clear,220,2013-10-21 18:55:00
3:15 PM,64.4,37.4,37,30.04,10.0,SW,11.5,-,N/A,,Clear,220,2013-10-21 19:15:00
3:35 PM,64.4,37.4,37,30.04,10.0,SSW,10.4,-,N/A,,Clear,210,2013-10-21 19:35:00
3:55 PM,64.4,37.4,37,30.03,10.0,SSW,8.1,17.3,N/A,,Clear,210,2013-10-21 19:55:00
4:15 PM,64.4,35.6,34,30.03,10.0,South,8.1,-,N/A,,Clear,180,2013-10-21 20:15:00
4:35 PM,62.6,35.6,37,30.03,10.0,South,9.2,-,N/A,,Clear,190,2013-10-21 20:35:00
4:55 PM,62.6,35.6,37,30.01,10.0,South,9.2,-,N/A,,Clear,180,2013-10-21 20:55:00
5:15 PM,62.6,35.6,37,30.01,10.0,South,6.9,-,N/A,,Clear,190,2013-10-21 21:15:00
5:35 PM,60.8,35.6,39,30.01,10.0,South,6.9,-,N/A,,Clear,170,2013-10-21 21:35:00
5:55 PM,59.0,37.4,45,30.02,10.0,South,3.5,-,N/A,,Clear,170,2013-10-21 21:55:00
6:15 PM,59.0,37.4,45,30.03,10.0,South,6.9,-,N/A,,Clear,170,2013-10-21 22:15:00
6:35 PM,55.4,37.4,51,30.03,10.0,South,4.6,-,N/A,,Clear,170,2013-10-21 22:35:00
6:55 PM,57.2,37.4,48,30.03,10.0,South,4.6,-,N/A,,Clear,180,2013-10-21 22:55:00
7:15 PM,55.4,37.4,51,30.04,10.0,South,5.8,-,N/A,,Clear,180,2013-10-21 23:15:00
7:35 PM,55.4,37.4,51,30.04,10.0,South,4.6,-,N/A,,Clear,170,2013-10-21 23:35:00
7:55 PM,53.6,39.2,58,30.04,10.0,South,4.6,-,N/A,,Clear,170,2013-10-21 23:55:00
8:15 PM,53.6,41.0,62,30.03,10.0,South,6.9,-,N/A,,Clear,170,2013-10-22 00:15:00
8:35 PM,53.6,42.8,67,30.03,10.0,South,3.5,-,N/A,,Clear,170,2013-10-22 00:35:00
8:55 PM,53.6,42.8,67,30.03,10.0,South,4.6,-,N/A,,Clear,180,2013-10-22 00:55:00
9:15 PM,53.6,44.6,72,30.03,10.0,South,6.9,-,N/A,,Clear,180,2013-10-22 01:15:00
9:35 PM,53.6,44.6,72,30.03,10.0,South,5.8,-,N/A,,Clear,180,2013-10-22 01:35:00
9:55 PM,53.6,44.6,72,30.01,10.0,South,4.6,-,N/A,,Clear,190,2013-10-22 01:55:00
10:15 PM,51.8,44.6,76,30.01,10.0,South,4.6,-,N/A,,Clear,190,2013-10-22 02:15:00
10:35 PM,51.8,44.6,76,30.01,10.0,SSW,3.5,-,N/A,,Clear,210,2013-10-22 02:35:00
10:55 PM,51.8,44.6,76,30.00,10.0,SSW,3.5,-,N/A,,Clear,210,2013-10-22 02:55:00
11:15 PM,50.0,44.6,82,29.99,10.0,Calm,Calm,-,N/A,,Clear,0,2013-10-22 03:15:00
11:35 PM,50.0,44.6,82,29.99,10.0,Calm,Calm,-,N/A,,Clear,0,2013-10-22 03:35:00
11:55 PM,50.0,44.6,82,29.98,10.0,Calm,Calm,-,N/A,,Clear,0,2013-10-22 03:55:00